• In Belarus
  • List of Countries
  • For 7 days
  • Water Temperature
  • Weather Map
  • Weather Widgets
  • user-avatar
    Login

    Hourly Weather Kabul

    Today, 28 January, Tuesday

    Time Temperature Precipitation Wind Pressure Humidity
    00:00 -4°C° 0 mm 1 mps 605 mmHg 61%
    01:00 -7°C° 0 mm 2 mps 605 mmHg 60%
    02:00 -7°C° 0 mm 2 mps 605 mmHg 59%
    03:00 -7°C° 0 mm 2 mps 604 mmHg 59%
    04:00 -8°C° 0 mm 2 mps 604 mmHg 58%
    05:00 -8°C° 0 mm 1 mps 603 mmHg 57%
    06:00 -9°C° 0 mm 2 mps 603 mmHg 57%
    07:00 -9°C° 0 mm 2 mps 603 mmHg 56%
    08:00 -9°C° 0 mm 2 mps 603 mmHg 56%
    09:00 -8°C° 0 mm 2 mps 603 mmHg 57%
    10:00 -6°C° 0 mm 2 mps 603 mmHg 58%
    11:00 -5°C° 0 mm 2 mps 604 mmHg 59%
    12:00 -4°C° 0 mm 2 mps 603 mmHg 59%
    13:00 -3°C° 0 mm 2 mps 603 mmHg 60%
    14:00 -3°C° 0 mm 2 mps 602 mmHg 61%
    15:00 -4°C° 0 mm 2 mps 602 mmHg 62%
    16:00 -5°C° 0 mm 2 mps 601 mmHg 63%
    17:00 -6°C° 0 mm 2 mps 601 mmHg 64%
    18:00 -7°C° 0 mm 2 mps 602 mmHg 60%
    19:00 -7°C° 0 mm 2 mps 602 mmHg 55%
    20:00 -8°C° 0 mm 2 mps 603 mmHg 51%
    21:00 -9°C° 0 mm 2 mps 603 mmHg 50%
    22:00 -9°C° 0 mm 2 mps 603 mmHg 49%
    23:00 -9°C° 0 mm 2 mps 603 mmHg 47%

    Tomorrow, 29 January, Wednesday

    Time Temperature Precipitation Wind Pressure Humidity
    00:00 -9°C° 0 mm 2 mps 602 mmHg 47%
    01:00 -10°C° 0 mm 2 mps 602 mmHg 47%
    02:00 -10°C° 0 mm 2 mps 602 mmHg 46%
    03:00 -10°C° 0 mm 2 mps 602 mmHg 46%
    04:00 -12°C° 0 mm 2 mps 601 mmHg 46%
    05:00 -12°C° 0 mm 2 mps 601 mmHg 45%
    06:00 -12°C° 0 mm 2 mps 601 mmHg 44%
    07:00 -12°C° 0 mm 2 mps 602 mmHg 44%
    08:00 -12°C° 0 mm 2 mps 602 mmHg 43%
    09:00 -10°C° 0 mm 2 mps 603 mmHg 45%
    10:00 -8°C° 0 mm 2 mps 603 mmHg 48%
    11:00 -6°C° 0 mm 2 mps 604 mmHg 51%
    12:00 -5°C° 0 mm 2 mps 604 mmHg 52%
    13:00 -5°C° 0 mm 2 mps 603 mmHg 54%
    14:00 -4°C° 0 mm 2 mps 603 mmHg 55%
    15:00 -3°C° 0 mm 1 mps 603 mmHg 57%
    16:00 -3°C° 0 mm 1 mps 603 mmHg 59%
    17:00 -4°C° 0 mm 1 mps 603 mmHg 62%
    18:00 -6°C° 0 mm 1 mps 603 mmHg 58%
    19:00 -7°C° 0 mm 1 mps 604 mmHg 55%
    20:00 -7°C° 0 mm 1 mps 604 mmHg 51%
    21:00 -8°C° 0 mm 2 mps 605 mmHg 50%
    22:00 -9°C° 0 mm 2 mps 605 mmHg 48%
    23:00 -9°C° 0 mm 2 mps 605 mmHg 47%

    Day after tomorrow, 30 January, Thursday

    Time Temperature Precipitation Wind Pressure Humidity
    00:00 -9°C° 0 mm 2 mps 605 mmHg 47%
    01:00 -9°C° 0 mm 2 mps 605 mmHg 47%
    02:00 -9°C° 0 mm 2 mps 605 mmHg 47%
    03:00 -10°C° 0 mm 2 mps 604 mmHg 47%
    04:00 -10°C° 0 mm 2 mps 604 mmHg 47%
    05:00 -10°C° 0 mm 2 mps 604 mmHg 48%
    06:00 -10°C° 0 mm 2 mps 604 mmHg 48%
    07:00 -10°C° 0 mm 2 mps 604 mmHg 48%
    08:00 -10°C° 0 mm 2 mps 604 mmHg 48%
    09:00 -8°C° 0 mm 2 mps 604 mmHg 50%
    10:00 -7°C° 0 mm 2 mps 604 mmHg 51%
    11:00 -5°C° 0 mm 2 mps 605 mmHg 52%
    12:00 -4°C° 0 mm 2 mps 604 mmHg 54%
    13:00 -4°C° 0 mm 2 mps 604 mmHg 56%
    14:00 -3°C° 0 mm 2 mps 603 mmHg 58%
    15:00 -2°C° 0 mm 1 mps 603 mmHg 60%
    16:00 -2°C° 0 mm 1 mps 603 mmHg 62%
    17:00 -3°C° 0 mm 1 mps 602 mmHg 64%
    18:00 -3°C° 0 mm 1 mps 603 mmHg 62%
    19:00 -4°C° 0 mm 1 mps 603 mmHg 60%
    20:00 -4°C° 0 mm 1 mps 604 mmHg 58%
    21:00 -4°C° 0 mm 1 mps 604 mmHg 58%
    22:00 -4°C° 0 mm 1 mps 603 mmHg 58%
    23:00 -4°C° 0 mm 1 mps 603 mmHg 58%

    31 January, Friday

    Time Temperature Precipitation Wind Pressure Humidity
    00:00 -4°C° 0 mm 1 mps 603 mmHg 59%
    01:00 -4°C° 0 mm 1 mps 603 mmHg 59%
    02:00 -4°C° 0 mm 1 mps 603 mmHg 60%
    03:00 -4°C° 0 mm 1 mps 603 mmHg 60%
    04:00 -6°C° 0 mm 1 mps 602 mmHg 61%
    05:00 -6°C° 0 mm 1 mps 602 mmHg 62%
    06:00 -6°C° 0 mm 1 mps 602 mmHg 63%
    07:00 -6°C° 0 mm 1 mps 602 mmHg 64%
    08:00 -4°C° 0 mm 1 mps 603 mmHg 65%
    09:00 -3°C° 0 mm 1 mps 603 mmHg 67%
    10:00 -2°C° 0 mm 1 mps 603 mmHg 69%
    11:00 -1°C° 0 mm 1 mps 603 mmHg 72%
    12:00 -1°C° 0.1 mm 1 mps 603 mmHg 74%
    13:00 -1°C° 0.1 mm 1 mps 603 mmHg 77%
    14:00 0°C° 0.1 mm 1 mps 602 mmHg 80%
    15:00 -1°C° 0 mm 1 mps 602 mmHg 79%
    16:00 -1°C° 0 mm 1 mps 602 mmHg 79%
    17:00 -1°C° 0 mm 1 mps 602 mmHg 78%
    18:00 -2°C° 0 mm 1 mps 603 mmHg 75%
    19:00 -3°C° 0 mm 1 mps 603 mmHg 72%
    20:00 -6°C° 0 mm 2 mps 604 mmHg 69%
    21:00 -6°C° 0 mm 2 mps 604 mmHg 68%
    22:00 -6°C° 0 mm 2 mps 604 mmHg 66%
    23:00 -7°C° 0 mm 2 mps 604 mmHg 65%

    1 February, Saturday

    Time Temperature Precipitation Wind Pressure Humidity
    00:00 -7°C° 0 mm 2 mps 604 mmHg 64%
    01:00 -7°C° 0 mm 2 mps 604 mmHg 63%
    02:00 -7°C° 0 mm 2 mps 604 mmHg 62%
    03:00 -8°C° 0 mm 2 mps 604 mmHg 61%
    04:00 -8°C° 0 mm 2 mps 604 mmHg 60%
    05:00 -8°C° 0 mm 2 mps 604 mmHg 59%
    06:00 -8°C° 0 mm 2 mps 604 mmHg 58%
    07:00 -8°C° 0 mm 2 mps 604 mmHg 57%
    08:00 -9°C° 0 mm 2 mps 604 mmHg 56%
    09:00 -7°C° 0 mm 2 mps 604 mmHg 57%
    10:00 -5°C° 0 mm 2 mps 605 mmHg 57%
    11:00 -4°C° 0 mm 2 mps 605 mmHg 58%
    12:00 -3°C° 0 mm 2 mps 605 mmHg 59%
    13:00 -3°C° 0 mm 2 mps 605 mmHg 61%
    14:00 0°C° 0 mm 1 mps 604 mmHg 62%
    15:00 -1°C° 0 mm 1 mps 604 mmHg 64%
    16:00 -1°C° 0 mm 1 mps 604 mmHg 65%
    17:00 -2°C° 0 mm 1 mps 604 mmHg 66%
    18:00 -3°C° 0 mm 1 mps 605 mmHg 63%
    19:00 -3°C° 0 mm 1 mps 605 mmHg 60%
    20:00 -6°C° 0 mm 2 mps 606 mmHg 56%
    21:00 -6°C° 0 mm 2 mps 606 mmHg 55%
    22:00 -6°C° 0 mm 2 mps 606 mmHg 54%
    23:00 -7°C° 0 mm 2 mps 606 mmHg 53%

    2 February, Sunday

    Time Temperature Precipitation Wind Pressure Humidity
    00:00 -7°C° 0 mm 2 mps 606 mmHg 53%
    01:00 -7°C° 0 mm 2 mps 606 mmHg 52%
    02:00 -7°C° 0 mm 2 mps 606 mmHg 52%
    03:00 -8°C° 0 mm 2 mps 605 mmHg 52%
    04:00 -8°C° 0 mm 2 mps 605 mmHg 52%
    05:00 -8°C° 0 mm 2 mps 605 mmHg 52%
    06:00 -8°C° 0 mm 2 mps 605 mmHg 51%
    07:00 -8°C° 0 mm 2 mps 605 mmHg 51%
    08:00 -8°C° 0 mm 2 mps 605 mmHg 51%
    09:00 -7°C° 0 mm 2 mps 605 mmHg 52%
    10:00 -5°C° 0 mm 2 mps 605 mmHg 53%
    11:00 -4°C° 0 mm 2 mps 606 mmHg 54%
    12:00 -3°C° 0 mm 2 mps 605 mmHg 56%
    13:00 0°C° 0 mm 1 mps 605 mmHg 58%
    14:00 0°C° 0 mm 1 mps 604 mmHg 59%
    15:00 -1°C° 0 mm 1 mps 604 mmHg 61%
    16:00 -1°C° 0 mm 1 mps 604 mmHg 63%
    17:00 -2°C° 0 mm 1 mps 604 mmHg 64%
    18:00 -3°C° 0 mm 1 mps 604 mmHg 61%
    19:00 -3°C° 0 mm 1 mps 605 mmHg 57%
    20:00 -6°C° 0 mm 2 mps 605 mmHg 53%
    21:00 -6°C° 0 mm 2 mps 605 mmHg 52%
    22:00 -6°C° 0 mm 2 mps 605 mmHg 51%
    23:00 -7°C° 0 mm 2 mps 606 mmHg 50%
    Show more